Regional Weather Roundup
Issued by NWS

Home | Current Version | Previous Version | Text Only | Print | Product List | Glossary Off
Versions: 1 2 3 4 5 6 7 8 9 10 11 12 13 14 15 16 17 18 19 20 21 22 23 24 25 26 27 28 29 30 31 32 33 34 35 36 37 38 39 40 41 42 43 44 45 46 47 48 49 50

517
ASUS43 KOAX 051102
RWRNE

WEATHER ROUNDUP FOR NEBRASKA
NATIONAL WEATHER SERVICE OMAHA NE
500 AM CST FRI FEB 05 2016

NOTES: SATELLITE DATA IS BEING USED TO AUGMENT CLOUD COVER ABOVE
       12000 FEET.
       "FAIR" INDICATES FEW OR NO CLOUDS BELOW 12,000 FEET WITH NO
       SIGNIFICANT WEATHER AND/OR OBSTRUCTIONS TO VISIBILITY.

  * THESE STATIONS DO NOT REPORT WEATHER SUCH AS RAIN...SNOW OR FOG.

NEZ001>004-019>022-054>056-051200-
NEBRASKA PANHANDLE

CITY           SKY/WX    TMP DP  RH WIND       PRES   REMARKS
SCOTTSBLUFF    CLOUDY    25  16  68 W12       30.22R WCI  14
ALLIANCE       CLOUDY    24  18  77 W10       30.16R WCI  14
CHADRON        MOCLDY    27  18  69 W17       30.18R WCI  14
KIMBALL        CLOUDY    25  18  72 NW17      30.19R WCI  12
SIDNEY         CLOUDY    26  19  74 NW14      30.20R WCI  14
$$

NEZ057>060-069>072-079>082-051200-
SOUTHWEST NEBRASKA

CITY           SKY/WX    TMP DP  RH WIND       PRES   REMARKS
NORTH PLATTE   LGT SNOW  31  28  89 W14       30.20S FOG     WCI  21
IMPERIAL       FLURRIES  29  26  89 W12       30.22S WCI  19
MCCOOK         CLOUDY    25  21  85 SW5       30.24S WCI  19
$$

NEZ005>010-023>029-035>040-094-051200-
NORTH CENTRAL NEBRASKA

CITY           SKY/WX    TMP DP  RH WIND       PRES   REMARKS
VALENTINE      CLOUDY    27  23  85 SW5       30.13R WCI  22
AINSWORTH      CLOUDY    30  26  83 SW7       30.13R WCI  23
BROKEN BOW     LGT SNOW  28  27  96 W8        30.18S FOG     WCI  20
ORD            CLOUDY    24  20  84 CALM      30.19F
$$

NEZ041-046>049-061>064-073>077-083>087-051200-
SOUTH CENTRAL NEBRASKA

CITY           SKY/WX    TMP DP  RH WIND       PRES   REMARKS
GRAND ISLAND   LGT SNOW  24  19  81 S14       30.26F WCI  12
HASTINGS       LGT SNOW  22  15  75 S7        30.27S WCI  13
HEBRON         CLOUDY    16  13  90 CALM      30.33S
KEARNEY *      CLOUDY    23 -22  13 S7        30.24S WCI  15
$$

NEZ011>018-030>034-042>045-051200-
NORTHEAST NEBRASKA

CITY           SKY/WX    TMP DP  RH WIND       PRES   REMARKS
NORFOLK        CLOUDY    20  15  81 S10       30.25R WCI   9
BLAIR          CLOUDY    17  15  92 S5        30.30F FOG     WCI  10
COLUMBUS *     CLOUDY    16   3  57 CALM      30.29S
FREMONT        CLOUDY    14  11  89 CALM      30.31S
TEKAMAH        FOG        8   6  92 S6        30.33S VSB 1/4 WCI  -2
$$

NEZ050>053-065>068-078-088>093-051200-
SOUTHEAST NEBRASKA

CITY           SKY/WX    TMP DP  RH WIND       PRES   REMARKS
LINCOLN        PTCLDY    14   9  80 CALM      30.35R
OMAHA EPPLEY   CLOUDY    19  16  88 S5        30.34S WCI  12
BEATRICE       CLOUDY    18  16  90 CALM      30.34R
FALLS CITY     CLOUDY    22  19  89 CALM      30.36R
NEBRASKA CITY  CLOUDY    19  17  89 CALM      30.34S
$$

NEZ044-045-051>053-067-051200-
OMAHA AREA

CITY           SKY/WX    TMP DP  RH WIND       PRES   REMARKS
OMAHA EPPLEY   CLOUDY    19  16  88 S5        30.34S WCI  12
BLAIR          CLOUDY    17  15  92 S5        30.30F FOG     WCI  10
FREMONT        CLOUDY    14  11  89 CALM      30.31S
OFFUTT AFB     CLOUDY    16  14  94 CALM      30.34S
WAHOO          FAIR      12  10  90 S3        30.32S
$$




USA.gov is the U.S. government's official web portal to all federal, state and local government web resources and services.